[[{"header":{"parameterUnit":"m.s-1","parameterCategory":1,"la1":30.2991,"la2":30.254,"lo1":-89.0895,"lo2":-89.0444,"dy":0.0017,"dx":0.0017,"nx":28,"ny":28,"refTime":"2025-06-14T09:00:00:Z","depth":0,"parameterNumber":2,"parameterNumberName":"U-component_of_WINDS"},"data":[0,0,0,0,0,0,0,0,0,0,0,0,0,0,0,0,0,0,0,0,0,0,0,0,0,0,0,0,0,0,0,0,0,0,0,0,0,0,0,0,0,0,0,0,0,0,0,0,0,0,0,0,0,0,0,0,0,0,2.3222,2.3224,0,2.3358,2.336,2.3361,2.3366,2.3365,2.3363,2.3361,2.35,2.3505,2.3511,0,0,0,0,0,0,0,0,0,0,0,0,0,2.2967,2.2971,2.3222,2.3224,2.3226,2.3358,2.336,2.3361,2.3367,2.3365,2.3363,2.3361,2.3499,2.3505,2.3511,0,0,0,0,0,0,0,0,0,0,0,0,0,2.3087,2.2973,2.3222,2.3244,2.3247,2.3357,2.336,2.3362,2.3367,2.3365,2.3362,2.336,2.3497,2.3504,2.3512,2.3609,0,0,2.3536,2.3539,0,0,0,0,0,0,0,0,2.3081,2.3097,2.3239,2.3243,2.3247,2.3343,2.332,2.3445,2.3368,2.3322,2.3361,2.3359,2.345,2.3461,2.3492,2.3615,2.3621,2.3537,2.3541,2.3545,2.3547,0,0,0,0,0,0,0,2.3072,2.3091,2.3276,2.3241,2.3246,2.3247,2.3261,2.3344,2.3398,2.3325,2.3326,2.3342,2.3451,2.3485,2.3495,2.3623,2.3536,2.3543,2.3548,2.3551,2.3831,2.3834,0,0,0,0,0,0,2.306,2.3084,2.3272,2.328,2.3156,2.3253,2.327,2.3314,2.3397,2.3407,2.3344,2.3342,2.3472,2.3486,2.35,2.3618,2.3545,2.3552,2.3556,2.3828,2.3832,2.3835,0,0,0,0,0,0,2.3054,2.3076,2.3266,2.3182,2.3207,2.326,2.3311,2.3318,2.3351,2.3411,2.342,2.3368,2.3471,2.3489,2.3581,2.3623,2.3555,2.3563,2.3825,2.3829,2.3833,2.3855,0,0,0,0,0,0,2.3047,2.3074,2.3112,2.3183,2.3211,2.3346,2.3313,2.3323,2.3365,2.3363,2.3436,2.3446,2.3471,2.357,2.3589,2.3633,2.3569,2.3822,2.3827,2.3832,2.3851,2.386,2.3867,0,0,0,0,0,2.3038,2.3113,2.3114,2.3137,2.3259,2.3348,2.3364,2.3391,2.3368,2.3406,2.3444,2.3443,2.3615,2.3579,2.3601,2.3648,2.3819,2.3826,2.3832,2.3847,2.3858,2.3867,0,0,0,0,0,0,2.3046,2.3123,2.3125,2.3226,2.328,2.3349,2.3398,2.3401,2.3463,2.3459,2.349,2.3507,2.3598,2.3632,2.359,2.3745,2.3715,2.3725,2.3719,2.373,2.3737,2.3727,2.3575,0,0,0,0,0,2.306,2.3125,2.3189,2.3272,2.3299,2.3344,2.3383,2.3399,2.3457,2.348,2.3525,2.3581,2.3647,2.369,2.3755,2.3856,2.3871,2.3899,2.3906,2.3913,2.3922,2.3976,2.3989,2.3855,2.3855,2.3855,0,0,2.3089,2.3139,2.3178,2.3275,2.3319,2.3386,2.3363,2.3435,2.3485,2.3491,2.358,2.3615,2.3679,2.3776,2.3821,2.3807,2.3962,2.3921,2.3925,2.3931,2.3984,2.3996,2.4008,2.3859,2.3858,2.3858,0,0,2.3175,2.322,2.3293,2.3338,2.3405,2.3433,2.3451,2.3519,2.3542,2.3632,2.3638,2.3697,2.3811,2.3856,2.3894,2.3996,2.3997,2.4016,2.4058,2.411,2.4121,2.413,2.4166,2.4178,2.4025,2.4025,2.4025,0,2.3203,2.3304,2.3331,2.3402,2.3444,2.3452,2.3526,2.3568,2.3652,2.3681,2.3664,2.3807,2.3851,2.3957,2.3982,2.4013,2.4033,2.4008,2.4117,2.4127,2.4136,2.417,2.4184,2.4027,2.4026,2.4026,2.4026,0,2.3333,2.3403,2.3454,2.3535,2.3583,2.3655,2.3692,2.3737,2.3749,2.3779,2.387,2.3923,2.3997,2.4024,2.4036,2.4132,2.4121,2.4111,2.4081,2.415,2.4183,2.4196,2.4029,2.4029,2.4028,2.4028,0,0,2.343,2.3524,2.3542,2.3578,2.3652,2.3706,2.3778,2.3851,2.3888,2.3946,2.4007,2.4102,2.4092,2.4135,2.4153,2.4199,2.4275,2.4183,2.4185,2.4197,2.4382,2.4389,2.4404,2.4276,2.4278,2.4281,2.4376,0,2.3524,2.3653,2.3678,2.379,2.3854,2.3862,2.3925,2.3976,2.4006,2.4064,2.4097,2.4164,2.4147,2.4173,2.4219,2.4256,2.4312,2.4249,2.4332,2.4335,2.4315,2.4421,2.4429,2.4517,2.4389,2.4391,2.4393,0,2.3651,2.3711,2.3828,2.3892,2.392,2.3976,2.4044,2.41,2.4158,2.4176,2.4223,2.4235,2.431,2.4276,2.4379,2.4335,2.4371,2.4394,2.4398,2.4406,2.4368,2.4432,2.4546,2.4559,2.4414,2.4412,2.441,0,2.3708,2.3818,2.3903,2.3933,2.401,2.4049,2.4083,2.4138,2.418,2.4239,2.4266,2.4334,2.437,2.4422,2.4451,2.4424,2.4551,2.452,2.4568,2.4567,2.4594,2.4592,2.4715,2.4618,2.4617,2.4617,2.4617,0,2.381,2.3881,2.3929,2.3981,2.4061,2.4089,2.4167,2.4201,2.425,2.4308,2.4319,2.4373,2.4408,2.4467,2.449,2.4571,2.4588,2.4604,2.4609,2.4603,2.4601,2.4626,2.4621,2.4621,2.462,2.4619,2.4619,0,2.3887,2.3922,2.4015,2.4079,2.4097,2.4153,2.4208,2.4258,2.4288,2.4361,2.4379,2.4426,2.4495,2.4529,2.4616,2.4632,2.4723,2.4724,2.4703,2.4705,2.475,2.4745,2.4893,2.4914,2.4803,2.4804,2.4805,0,2.395,2.4005,2.4075,2.4114,2.4149,2.4212,2.4255,2.4284,2.4328,2.4397,2.4439,2.4509,2.4566,2.4677,2.4718,2.4784,2.4787,2.4835,2.4797,2.4788,2.4787,2.4783,2.4788,2.4841,2.4842,2.4843,2.4844,0,2.4056,2.4071,2.4131,2.4198,2.4247,2.4301,2.4354,2.4386,2.4423,2.4472,2.4543,2.4587,2.4675,2.4744,2.4813,2.4847,2.4852,2.4855,2.4869,2.4863,2.4848,2.4856,2.472,2.4852,2.4851,2.485,2.485,2.485,2.4128,2.4177,2.4233,2.43,2.4342,2.4391,2.4441,2.4476,2.4536,2.461,2.4624,2.4699,2.4754,2.4847,2.4883,2.4942,2.4931,2.4952,2.4958,2.4962,2.4964,2.4839,2.4955,2.4955,2.4954,2.4954,2.4954,0,2.4234,2.4271,2.4332,2.4405,2.4457,2.4456,2.4514,2.4558,2.4624,2.4675,2.4731,2.4812,2.4879,2.4925,2.4992,2.503,2.5034,2.5047,2.5044,2.5052,2.497,2.4951,2.5043,2.5043,2.5043,2.5043,2.5043,2.5043,2.4296,2.4378,2.4399,2.4501,2.4537,2.4611,2.4644,2.4688,2.4729,2.4819,2.4875,2.4904,2.4953,2.5024,2.5084,2.5096,2.512,2.5133,2.5145,2.5067,2.5058,2.5049,2.5031,2.5138,2.5139,2.5222,2.5222,2.5223]},{"header":{"parameterUnit":"m.s-1","parameterCategory":1,"la1":30.2991,"la2":30.254,"lo1":-89.0895,"lo2":-89.0444,"dy":0.0017,"dx":0.0017,"nx":28,"ny":28,"refTime":"2025-06-14T09:00:00:Z","depth":0,"parameterNumber":3,"parameterNumberName":"V-component_of_WINDS"},"data":[0,0,0,0,0,0,0,0,0,0,0,0,0,0,0,0,0,0,0,0,0,0,0,0,0,0,0,0,0,0,0,0,0,0,0,0,0,0,0,0,0,0,0,0,0,0,0,0,0,0,0,0,0,0,0,0,0,0,4.3604,4.3604,0,4.3583,4.3583,4.3583,4.3542,4.3541,4.354,4.354,4.3518,4.3518,4.3518,0,0,0,0,0,0,0,0,0,0,0,0,0,4.361,4.3611,4.3604,4.3604,4.3604,4.3583,4.3583,4.3583,4.3542,4.3541,4.354,4.3539,4.3518,4.3518,4.3518,0,0,0,0,0,0,0,0,0,0,0,0,0,4.36,4.3611,4.3605,4.3581,4.3579,4.3583,4.3583,4.3583,4.3542,4.3541,4.354,4.3539,4.3518,4.3518,4.3518,4.3544,0,0,4.3519,4.3519,0,0,0,0,0,0,0,0,4.3601,4.36,4.3585,4.3583,4.358,4.3564,4.3577,4.357,4.3543,4.3556,4.354,4.3538,4.3534,4.3533,4.3532,4.3543,4.3542,4.3519,4.3519,4.352,4.352,0,0,0,0,0,0,0,4.3602,4.3601,4.3596,4.3585,4.3582,4.3572,4.3569,4.3576,4.3552,4.3555,4.3552,4.355,4.3533,4.3532,4.3531,4.3542,4.3519,4.352,4.352,4.352,4.3573,4.3575,0,0,0,0,0,0,4.3606,4.3602,4.3597,4.3595,4.3588,4.3573,4.357,4.357,4.3552,4.3548,4.3551,4.3548,4.3532,4.3531,4.353,4.3559,4.352,4.352,4.352,4.3572,4.3574,4.3575,0,0,0,0,0,0,4.3606,4.3606,4.3598,4.3598,4.3596,4.3574,4.3575,4.3571,4.3569,4.3549,4.3545,4.3554,4.3531,4.353,4.3541,4.3557,4.352,4.352,4.3571,4.3573,4.3574,4.3616,0,0,0,0,0,0,4.3606,4.3606,4.3615,4.3598,4.3596,4.3609,4.3576,4.3571,4.357,4.3566,4.3551,4.3547,4.353,4.3541,4.3541,4.3557,4.352,4.3569,4.3571,4.3574,4.3613,4.3619,4.3624,0,0,0,0,0,4.3607,4.3628,4.3616,4.3616,4.3607,4.361,4.3608,4.3588,4.3571,4.3581,4.3568,4.3548,4.3556,4.3542,4.3542,4.3558,4.3568,4.3571,4.3574,4.361,4.3618,4.3624,0,0,0,0,0,0,4.3647,4.3625,4.3612,4.3628,4.3621,4.3603,4.3613,4.3596,4.3594,4.359,4.3565,4.3562,4.3577,4.3569,4.3554,4.3583,4.3559,4.3562,4.3587,4.3594,4.3599,4.36,4.3521,0,0,0,0,0,4.3658,4.3661,4.3642,4.3658,4.3656,4.3635,4.3636,4.3621,4.3613,4.3609,4.3597,4.359,4.3591,4.3592,4.3592,4.3612,4.3608,4.3624,4.3629,4.3634,4.3636,4.3646,4.3653,4.3584,4.3584,4.3584,0,0,4.368,4.3668,4.3672,4.3666,4.3659,4.3663,4.3633,4.3639,4.3642,4.361,4.362,4.3611,4.3602,4.3617,4.3624,4.3611,4.3655,4.3638,4.3641,4.3641,4.365,4.3657,4.3662,4.3586,4.3586,4.3586,0,0,4.3722,4.3714,4.3726,4.372,4.371,4.3697,4.37,4.3684,4.3677,4.3687,4.3663,4.3667,4.3669,4.3663,4.3661,4.3703,4.3684,4.3703,4.3732,4.3742,4.3748,4.3752,4.3767,4.3772,4.3706,4.3706,4.3706,0,4.375,4.3756,4.3735,4.3742,4.374,4.3713,4.3725,4.372,4.3711,4.371,4.3697,4.3699,4.3691,4.3705,4.3715,4.3714,4.3717,4.3704,4.3749,4.3753,4.3757,4.377,4.3776,4.3709,4.3708,4.3708,4.3708,0,4.3791,4.3796,4.3807,4.3798,4.3798,4.3808,4.3789,4.3791,4.3777,4.3766,4.3776,4.3765,4.3762,4.3765,4.3751,4.3777,4.377,4.3753,4.3728,4.3766,4.3778,4.3783,4.3712,4.3711,4.3711,4.371,0,0,4.3856,4.3837,4.3841,4.3837,4.3825,4.3828,4.3837,4.3835,4.3837,4.3832,4.3839,4.3842,4.3827,4.3824,4.3809,4.3819,4.3852,4.38,4.38,4.3809,4.388,4.3892,4.3898,4.384,4.3841,4.3842,4.388,0,4.3894,4.3908,4.389,4.3908,4.3912,4.3887,4.3895,4.3889,4.3879,4.3881,4.387,4.3872,4.3852,4.385,4.3858,4.3846,4.3865,4.3843,4.3846,4.3846,4.3847,4.3904,4.3917,4.3953,4.3885,4.3886,4.3886,0,4.394,4.3937,4.3956,4.3943,4.3944,4.3951,4.3948,4.3951,4.3943,4.3935,4.3933,4.3916,4.3924,4.3902,4.3913,4.3899,4.3899,4.3894,4.3895,4.3893,4.3867,4.3903,4.3964,4.397,4.3894,4.3893,4.3893,0,4.3984,4.3986,4.3997,4.3994,4.398,4.3986,4.398,4.3971,4.3971,4.3969,4.3968,4.3967,4.3966,4.3966,4.3949,4.3934,4.3962,4.3938,4.3955,4.3956,4.3961,4.396,4.4022,4.3964,4.3964,4.3964,4.3964,0,4.4028,4.404,4.4016,4.4023,4.4036,4.4016,4.403,4.4022,4.4015,4.4019,4.3998,4.4003,4.3982,4.3985,4.3972,4.3983,4.3983,4.3977,4.3973,4.3978,4.3978,4.3976,4.3973,4.3965,4.3965,4.3964,4.3964,0,4.4078,4.4063,4.4073,4.4059,4.4056,4.4066,4.4054,4.406,4.405,4.4056,4.4057,4.404,4.4042,4.4026,4.4026,4.4017,4.4034,4.4027,4.4037,4.4034,4.4051,4.4049,4.4113,4.412,4.4058,4.4059,4.4059,0,4.4106,4.4115,4.4102,4.4104,4.4099,4.4103,4.4103,4.4084,4.4085,4.4078,4.4085,4.4086,4.4085,4.4091,4.4078,4.4078,4.407,4.4092,4.4069,4.4074,4.4069,4.4068,4.4068,4.4096,4.4097,4.4098,4.4098,0,4.4157,4.4149,4.415,4.4149,4.4149,4.4147,4.4144,4.4147,4.4127,4.4129,4.4132,4.4131,4.4131,4.4133,4.413,4.4124,4.4108,4.4106,4.4109,4.4113,4.4118,4.4115,4.4048,4.4104,4.4103,4.4103,4.4102,4.4102,4.4196,4.4203,4.4195,4.4197,4.4192,4.419,4.4195,4.4185,4.4187,4.4185,4.4175,4.418,4.4173,4.4168,4.4164,4.4168,4.4157,4.4163,4.4164,4.4165,4.4168,4.412,4.4167,4.4167,4.4167,4.4167,4.4167,0,4.4245,4.4239,4.4241,4.4237,4.4239,4.4224,4.422,4.4222,4.4226,4.4222,4.4222,4.4226,4.4227,4.4216,4.4216,4.4221,4.4213,4.4221,4.422,4.4219,4.4178,4.4174,4.4227,4.4227,4.4227,4.4227,4.4227,4.4227,4.427,4.4281,4.4273,4.4281,4.4275,4.4279,4.4278,4.4276,4.4272,4.4277,4.4278,4.4271,4.4264,4.4263,4.4264,4.4261,4.4261,4.4272,4.4266,4.4227,4.4222,4.4216,4.4212,4.4272,4.4272,4.4306,4.4306,4.4307]}]]